Location: Homewood
(41.1836°S, 175.9581°E)
Time: 17:03:31
(UTC+00:00)

Okean 3 Rocket - Visible Passes

Search period start: 08 September 2024 00:00
Search period end: 18 September 2024 00:00
Orbit: 611 x 641 km, 82.5° (Epoch: 08 September)

Date Brightness Start Highest point End Pass type
(mag) Time Alt. Az. Time Alt. Az. Time Alt. Az.
08 Sep 4.3 07:04:50 10° S 07:09:01 34° ESE 07:12:07 16° NE visible
08 Sep 6.0 08:43:20 10° SW 08:46:47 21° W 08:49:31 13° NW visible
09 Sep 3.6 07:24:08 10° S 07:28:43 67° E 07:33:15 10° NNE visible
09 Sep 6.8 09:04:48 10° WSW 09:06:04 11° W 09:07:20 10° W visible
10 Sep 4.1 07:43:45 10° SSW 07:48:18 62° W 07:52:47 10° N visible
11 Sep 4.8 06:26:01 10° SSE 06:29:44 24° ESE 06:33:25 10° NE visible
11 Sep 5.5 08:03:43 10° SSW 08:07:45 31° W 08:11:46 10° NNW visible
12 Sep 4.0 06:45:05 10° S 06:49:30 44° ESE 06:53:52 10° NNE visible
12 Sep 6.5 08:24:13 10° SW 08:27:05 17° W 08:29:58 10° NW visible
13 Sep 3.6 07:04:31 10° S 07:09:09 88° E 07:13:42 10° N visible
14 Sep 4.8 07:24:15 10° SSW 07:28:40 46° W 07:33:01 10° NNW visible
15 Sep 6.1 07:44:22 10° SW 07:48:04 24° W 07:51:43 10° NW visible
16 Sep 3.7 06:25:22 10° S 06:29:56 58° E 06:34:24 10° NNE visible
16 Sep 6.9 08:05:21 10° WSW 08:07:21 13° W 08:09:20 10° WNW visible
17 Sep 4.0 06:44:55 10° SSW 06:49:30 71° W 06:54:02 10° N visible
